Time,TemperatureF,DewpointF,PressureIn,WindDirection,WindDirectionDegrees,WindSpeedMPH,WindSpeedGustMPH,Humidity,HourlyPrecipIn,Conditions,Clouds,dailyrainin,SoftwareType,DateUTC
2013-01-28 00:09:00,37.2,33.4,30.03,North,0,0.0,0.0,86,0.00,,,0.00,Wunderground v.1.15,2013-01-28 08:09:00,
2013-01-28 00:19:00,37.3,33.5,30.03,North,0,0.0,2.0,86,0.00,,,0.00,Wunderground v.1.15,2013-01-28 08:19:00,
2013-01-28 00:29:00,37.2,33.4,30.04,North,0,0.0,2.0,86,0.00,,,0.00,Wunderground v.1.15,2013-01-28 08:29:00,
2013-01-28 00:34:00,37.5,33.4,30.04,North,0,1.0,2.0,85,0.00,,,0.00,Wunderground v.1.15,2013-01-28 08:34:00,
2013-01-28 00:44:00,37.8,33.4,30.04,North,0,0.0,3.0,84,0.00,,,0.00,Wunderground v.1.15,2013-01-28 08:44:00,
2013-01-28 00:54:00,37.3,33.2,30.04,North,0,0.0,3.0,85,0.00,,,0.00,Wunderground v.1.15,2013-01-28 08:54:00,
2013-01-28 01:04:00,37.3,33.2,30.04,NW,325,0.0,3.0,85,0.00,,,0.00,Wunderground v.1.15,2013-01-28 09:04:00,
2013-01-28 01:09:00,37.5,33.1,30.04,NW,325,0.0,3.0,84,0.00,,,0.00,Wunderground v.1.15,2013-01-28 09:09:00,
2013-01-28 01:19:00,37.5,33.1,30.04,NW,325,1.0,6.0,84,0.00,,,0.00,Wunderground v.1.15,2013-01-28 09:19:00,
2013-01-28 01:24:00,37.3,32.9,30.03,NW,325,0.0,6.0,84,0.00,,,0.00,Wunderground v.1.15,2013-01-28 09:24:00,
2013-01-28 01:34:00,37.2,33.1,30.03,NW,325,0.0,6.0,85,0.00,,,0.00,Wunderground v.1.15,2013-01-28 09:34:00,
2013-01-28 01:44:00,36.9,32.5,30.03,NW,325,0.0,6.0,84,0.00,,,0.00,Wunderground v.1.15,2013-01-28 09:44:00,
2013-01-28 01:54:00,36.6,32.5,30.04,NW,325,0.0,3.0,85,0.00,,,0.00,Wunderground v.1.15,2013-01-28 09:54:00,
2013-01-28 02:04:00,36.8,32.4,30.04,NW,325,1.0,3.0,84,0.00,,,0.00,Wunderground v.1.15,2013-01-28 10:04:00,
2013-01-28 02:09:00,36.8,32.4,30.04,NW,325,1.0,3.0,84,0.00,,,0.00,Wunderground v.1.15,2013-01-28 10:09:00,
2013-01-28 02:19:00,37.3,32.6,30.04,NW,325,1.0,1.0,83,0.00,,,0.00,Wunderground v.1.15,2013-01-28 10:19:00,
2013-01-28 02:29:00,37.2,32.5,30.05,NW,325,1.0,3.0,83,0.00,,,0.00,Wunderground v.1.15,2013-01-28 10:29:00,
2013-01-28 02:34:00,37.2,32.5,30.05,NW,325,1.0,3.0,83,0.00,,,0.00,Wunderground v.1.15,2013-01-28 10:34:00,
2013-01-28 02:44:00,37.0,32.6,30.05,NW,325,0.0,3.0,84,0.00,,,0.00,Wunderground v.1.15,2013-01-28 10:44:00,
2013-01-28 02:49:00,36.8,32.4,30.05,NW,325,0.0,3.0,84,0.00,,,0.00,Wunderground v.1.15,2013-01-28 10:49:00,
2013-01-28 02:59:00,36.6,32.5,30.05,NW,325,0.0,3.0,85,0.00,,,0.00,Wunderground v.1.15,2013-01-28 10:59:00,
2013-01-28 03:04:00,36.6,32.5,30.05,NW,325,1.0,3.0,85,0.00,,,0.00,Wunderground v.1.15,2013-01-28 11:04:00,
2013-01-28 03:14:00,36.8,32.7,30.05,NW,325,1.0,3.0,85,0.00,,,0.00,Wunderground v.1.15,2013-01-28 11:14:00,
2013-01-28 03:24:00,37.0,32.6,30.05,NW,325,0.0,2.0,84,0.00,,,0.00,Wunderground v.1.15,2013-01-28 11:24:00,
2013-01-28 03:34:00,36.6,32.5,30.05,NW,325,0.0,3.0,85,0.00,,,0.00,Wunderground v.1.15,2013-01-28 11:34:00,
2013-01-28 03:39:00,36.3,32.2,30.05,NW,325,1.0,1.0,85,0.00,,,0.00,Wunderground v.1.15,2013-01-28 11:39:00,
2013-01-28 03:49:00,35.9,32.1,30.05,NW,325,0.0,2.0,86,0.00,,,0.00,Wunderground v.1.15,2013-01-28 11:49:00,
2013-01-28 03:54:00,35.8,32.3,30.05,NW,325,0.0,2.0,87,0.00,,,0.00,Wunderground v.1.15,2013-01-28 11:54:00,
2013-01-28 04:04:00,35.8,32.6,30.05,NW,325,0.0,2.0,88,0.00,,,0.00,Wunderground v.1.15,2013-01-28 12:04:00,
2013-01-28 04:14:00,35.9,32.4,30.06,NW,325,0.0,2.0,87,0.00,,,0.00,Wunderground v.1.15,2013-01-28 12:14:00,
2013-01-28 04:24:00,35.8,32.3,30.07,NW,325,0.0,2.0,87,0.00,,,0.00,Wunderground v.1.15,2013-01-28 12:24:00,
2013-01-28 04:34:00,35.6,32.4,30.07,NW,325,0.0,2.0,88,0.00,,,0.00,Wunderground v.1.15,2013-01-28 12:34:00,
2013-01-28 04:39:00,35.6,32.4,30.06,NW,325,0.0,2.0,88,0.00,,,0.00,Wunderground v.1.15,2013-01-28 12:39:00,
2013-01-28 04:49:00,35.3,31.8,30.06,NW,325,0.0,2.0,87,0.00,,,0.00,Wunderground v.1.15,2013-01-28 12:49:00,
2013-01-28 04:54:00,35.5,32.6,30.06,NW,325,0.0,2.0,89,0.00,,,0.00,Wunderground v.1.15,2013-01-28 12:54:00,
2013-01-28 05:04:00,35.6,32.7,30.06,NW,325,0.0,2.0,89,0.00,,,0.00,Wunderground v.1.15,2013-01-28 13:04:00,
2013-01-28 05:14:00,36.0,32.5,30.06,NW,325,0.0,5.0,87,0.00,,,0.00,Wunderground v.1.15,2013-01-28 13:14:00,
2013-01-28 05:19:00,35.9,32.7,30.06,NW,325,0.0,5.0,88,0.00,,,0.00,Wunderground v.1.15,2013-01-28 13:19:00,
2013-01-28 05:29:00,35.8,32.6,30.07,NW,325,0.0,5.0,88,0.00,,,0.00,Wunderground v.1.15,2013-01-28 13:29:00,
2013-01-28 05:34:00,35.9,33.0,30.07,NW,325,0.0,5.0,89,0.00,,,0.00,Wunderground v.1.15,2013-01-28 13:34:00,
2013-01-28 05:44:00,36.3,32.8,30.07,NW,325,0.0,5.0,87,0.00,,,0.00,Wunderground v.1.15,2013-01-28 13:44:00,
2013-01-28 05:54:00,36.6,33.1,30.07,NW,325,0.0,5.0,87,0.00,,,0.00,Wunderground v.1.15,2013-01-28 13:54:00,
2013-01-28 05:59:00,36.6,32.8,30.07,NW,325,0.0,5.0,86,0.00,,,0.00,Wunderground v.1.15,2013-01-28 13:59:00,
2013-01-28 06:09:00,36.6,32.8,30.07,NW,325,0.0,5.0,86,0.00,,,0.00,Wunderground v.1.15,2013-01-28 14:09:00,
2013-01-28 06:14:00,36.6,33.1,30.07,NW,325,0.0,5.0,87,0.00,,,0.00,Wunderground v.1.15,2013-01-28 14:14:00,
2013-01-28 06:24:00,36.5,33.0,30.08,NW,325,0.0,3.0,87,0.00,,,0.00,Wunderground v.1.15,2013-01-28 14:24:00,
2013-01-28 06:34:00,36.3,33.1,30.08,NW,325,0.0,3.0,88,0.00,,,0.00,Wunderground v.1.15,2013-01-28 14:34:00,
2013-01-28 06:39:00,36.2,33.0,30.08,NW,325,0.0,3.0,88,0.00,,,0.00,Wunderground v.1.15,2013-01-28 14:39:00,
2013-01-28 06:49:00,36.5,33.6,30.08,NW,325,0.0,1.0,89,0.00,,,0.00,Wunderground v.1.15,2013-01-28 14:49:00,
2013-01-28 06:54:00,36.6,33.7,30.08,NW,325,0.0,1.0,89,0.00,,,0.00,Wunderground v.1.15,2013-01-28 14:54:00,
2013-01-28 07:04:00,36.8,33.9,30.08,NW,325,0.0,1.0,89,0.00,,,0.00,Wunderground v.1.15,2013-01-28 15:04:00,
2013-01-28 07:14:00,37.0,34.3,30.08,NW,325,0.0,1.0,90,0.00,,,0.00,Wunderground v.1.15,2013-01-28 15:14:00,
2013-01-28 07:24:00,37.3,34.4,30.08,NW,325,0.0,0.0,89,0.00,,,0.00,Wunderground v.1.15,2013-01-28 15:24:00,
2013-01-28 07:34:00,37.6,34.4,30.08,NW,325,0.0,0.0,88,0.00,,,0.00,Wunderground v.1.15,2013-01-28 15:34:00,
2013-01-28 07:39:00,37.6,34.1,30.08,NW,325,0.0,0.0,87,0.00,,,0.00,Wunderground v.1.15,2013-01-28 15:39:00,
2013-01-28 07:49:00,37.6,34.1,30.08,NW,325,0.0,0.0,87,0.00,,,0.00,Wunderground v.1.15,2013-01-28 15:49:00,
2013-01-28 07:59:00,37.9,34.7,30.09,NW,325,0.0,0.0,88,0.00,,,0.00,Wunderground v.1.15,2013-01-28 15:59:00,
2013-01-28 08:04:00,38.2,35.0,30.09,NW,325,0.0,0.0,88,0.00,,,0.00,Wunderground v.1.15,2013-01-28 16:04:00,
2013-01-28 08:14:00,38.8,35.3,30.10,NW,325,0.0,1.0,87,0.00,,,0.00,Wunderground v.1.15,2013-01-28 16:14:00,
2013-01-28 08:19:00,39.2,35.4,30.10,NW,325,0.0,1.0,86,0.00,,,0.00,Wunderground v.1.15,2013-01-28 16:19:00,
2013-01-28 08:29:00,40.1,36.0,30.09,NW,325,0.0,1.0,85,0.00,,,0.00,Wunderground v.1.15,2013-01-28 16:29:00,
2013-01-28 08:34:00,40.5,36.3,30.09,NW,325,0.0,1.0,85,0.00,,,0.00,Wunderground v.1.15,2013-01-28 16:34:00,
2013-01-28 08:44:00,40.9,36.7,30.10,NW,325,0.0,1.0,85,0.00,,,0.00,Wunderground v.1.15,2013-01-28 16:44:00,
2013-01-28 08:54:00,41.5,36.7,30.10,NW,325,0.0,1.0,83,0.00,,,0.00,Wunderground v.1.15,2013-01-28 16:54:00,
2013-01-28 08:59:00,41.8,37.0,30.10,NW,325,0.0,1.0,83,0.00,,,0.00,Wunderground v.1.15,2013-01-28 16:59:00,
2013-01-28 09:09:00,42.3,37.8,30.10,NW,325,0.0,1.0,84,0.00,,,0.00,Wunderground v.1.15,2013-01-28 17:09:00,
2013-01-28 09:14:00,42.8,38.3,30.10,NE,47,0.0,3.0,84,0.00,,,0.00,Wunderground v.1.15,2013-01-28 17:14:00,
2013-01-28 09:24:00,43.6,38.8,30.11,NW,318,1.0,3.0,83,0.00,,,0.00,Wunderground v.1.15,2013-01-28 17:24:00,
2013-01-28 09:34:00,43.9,39.1,30.11,North,6,2.0,3.0,83,0.00,,,0.00,Wunderground v.1.15,2013-01-28 17:34:00,
2013-01-28 09:39:00,44.1,39.3,30.11,North,0,2.0,3.0,83,0.00,,,0.00,Wunderground v.1.15,2013-01-28 17:39:00,
2013-01-28 09:49:00,43.9,39.4,30.11,NNW,346,2.0,2.0,84,0.00,,,0.00,Wunderground v.1.15,2013-01-28 17:49:00,
2013-01-28 09:54:00,43.8,39.3,30.11,NW,319,2.0,7.0,84,0.00,,,0.00,Wunderground v.1.15,2013-01-28 17:54:00,
2013-01-28 10:04:00,43.5,39.3,30.11,North,356,1.0,7.0,85,0.00,,,0.00,Wunderground v.1.15,2013-01-28 18:04:00,
2013-01-28 10:09:00,43.5,39.6,30.12,North,356,1.0,1.0,86,0.00,,,0.00,Wunderground v.1.15,2013-01-28 18:09:00,
2013-01-28 10:19:00,44.2,40.0,30.12,NNW,337,1.0,11.0,85,0.00,,,0.00,Wunderground v.1.15,2013-01-28 18:19:00,
2013-01-28 10:29:00,44.6,39.1,30.12,NNW,337,1.0,11.0,81,0.00,,,0.00,Wunderground v.1.15,2013-01-28 18:29:00,
2013-01-28 10:39:00,46.1,39.0,30.12,NW,322,2.0,2.0,76,0.00,,,0.00,Wunderground v.1.15,2013-01-28 18:39:00,
2013-01-28 10:49:00,46.5,38.7,30.12,North,352,3.0,3.0,74,0.00,,,0.00,Wunderground v.1.15,2013-01-28 18:49:00,
2013-01-28 10:54:00,47.1,38.5,30.12,North,353,3.0,5.0,72,0.00,,,0.00,Wunderground v.1.15,2013-01-28 18:54:00,
2013-01-28 11:04:00,47.7,39.1,30.12,North,0,2.0,7.0,72,0.00,,,0.00,Wunderground v.1.15,2013-01-28 19:04:00,
2013-01-28 11:14:00,47.1,38.2,30.13,West,278,4.0,8.0,71,0.00,,,0.00,Wunderground v.1.15,2013-01-28 19:14:00,
2013-01-28 11:19:00,47.4,38.8,30.13,WNW,299,4.0,4.0,72,0.00,,,0.00,Wunderground v.1.15,2013-01-28 19:19:00,
2013-01-28 11:29:00,47.9,38.9,30.13,NNW,330,4.0,4.0,71,0.00,,,0.00,Wunderground v.1.15,2013-01-28 19:29:00,
2013-01-28 11:34:00,48.0,38.3,30.13,NE,34,4.0,16.0,69,0.00,,,0.00,Wunderground v.1.15,2013-01-28 19:34:00,
2013-01-28 11:44:00,48.8,39.1,30.13,NNW,344,2.0,11.0,69,0.00,,,0.00,Wunderground v.1.15,2013-01-28 19:44:00,
2013-01-28 11:54:00,48.9,39.5,30.12,NNE,17,4.0,11.0,70,0.00,,,0.00,Wunderground v.1.15,2013-01-28 19:54:00,
2013-01-28 12:04:00,49.5,39.0,30.12,SW,220,3.0,11.0,67,0.00,,,0.00,Wunderground v.1.15,2013-01-28 20:04:00,
2013-01-28 12:09:00,49.6,39.1,30.12,NNW,336,3.0,3.0,67,0.00,,,0.00,Wunderground v.1.15,2013-01-28 20:09:00,
2013-01-28 12:19:00,50.2,38.1,30.12,North,350,3.0,13.0,63,0.00,,,0.00,Wunderground v.1.15,2013-01-28 20:19:00,
2013-01-28 12:24:00,50.4,38.7,30.11,NNW,330,4.0,13.0,64,0.00,,,0.00,Wunderground v.1.15,2013-01-28 20:24:00,
2013-01-28 12:34:00,50.5,38.4,30.11,NNW,335,4.0,13.0,63,0.00,,,0.00,Wunderground v.1.15,2013-01-28 20:34:00,
2013-01-28 12:44:00,51.4,38.8,30.11,North,349,2.0,10.0,62,0.00,,,0.00,Wunderground v.1.15,2013-01-28 20:44:00,
2013-01-28 12:49:00,51.9,38.9,30.11,North,350,3.0,10.0,61,0.00,,,0.00,Wunderground v.1.15,2013-01-28 20:49:00,
2013-01-28 12:59:00,51.7,39.9,30.10,NW,319,4.0,4.0,64,0.00,,,0.00,Wunderground v.1.15,2013-01-28 20:59:00,
2013-01-28 13:04:00,52.2,40.0,30.10,North,357,2.0,10.0,63,0.00,,,0.00,Wunderground v.1.15,2013-01-28 21:04:00,
2013-01-28 13:14:00,52.2,38.7,30.10,NW,320,3.0,12.0,60,0.00,,,0.00,Wunderground v.1.15,2013-01-28 21:14:00,
2013-01-28 13:19:00,52.6,38.2,30.10,North,354,3.0,12.0,58,0.00,,,0.00,Wunderground v.1.15,2013-01-28 21:19:00,
2013-01-28 13:29:00,52.6,38.7,30.10,North,350,3.0,3.0,59,0.00,,,0.00,Wunderground v.1.15,2013-01-28 21:29:00,
2013-01-28 13:34:00,52.9,38.1,30.10,North,359,3.0,12.0,57,0.00,,,0.00,Wunderground v.1.15,2013-01-28 21:34:00,
2013-01-28 13:44:00,53.2,38.4,30.09,NW,316,3.0,10.0,57,0.00,,,0.00,Wunderground v.1.15,2013-01-28 21:44:00,
2013-01-28 13:54:00,53.3,38.4,30.10,NNW,342,4.0,10.0,57,0.00,,,0.00,Wunderground v.1.15,2013-01-28 21:54:00,
2013-01-28 13:59:00,53.2,37.9,30.10,NNW,335,4.0,4.0,56,0.00,,,0.00,Wunderground v.1.15,2013-01-28 21:59:00,
2013-01-28 14:09:00,53.6,36.9,30.09,North,359,3.0,10.0,53,0.00,,,0.00,Wunderground v.1.15,2013-01-28 22:09:00,
2013-01-28 14:19:00,53.3,38.0,30.09,NNW,329,3.0,3.0,56,0.00,,,0.00,Wunderground v.1.15,2013-01-28 22:19:00,
2013-01-28 14:24:00,53.5,36.8,30.09,NNW,347,3.0,11.0,53,0.00,,,0.00,Wunderground v.1.15,2013-01-28 22:24:00,
2013-01-28 14:34:00,53.8,36.6,30.09,NW,308,2.0,11.0,52,0.00,,,0.00,Wunderground v.1.15,2013-01-28 22:34:00,
2013-01-28 14:39:00,53.2,37.0,30.10,NW,311,3.0,11.0,54,0.00,,,0.00,Wunderground v.1.15,2013-01-28 22:39:00,
2013-01-28 14:49:00,51.6,36.9,30.10,NNW,329,4.0,4.0,57,0.00,,,0.00,Wunderground v.1.15,2013-01-28 22:49:00,
2013-01-28 14:54:00,51.3,37.0,30.10,NNW,336,4.0,11.0,58,0.00,,,0.00,Wunderground v.1.15,2013-01-28 22:54:00,
2013-01-28 15:04:00,51.7,37.8,30.10,NNE,25,2.0,11.0,59,0.00,,,0.00,Wunderground v.1.15,2013-01-28 23:04:00,
2013-01-28 15:09:00,52.2,37.4,30.10,NNE,14,1.0,1.0,57,0.00,,,0.00,Wunderground v.1.15,2013-01-28 23:09:00,
2013-01-28 15:19:00,51.7,36.0,30.10,North,354,2.0,11.0,55,0.00,,,0.00,Wunderground v.1.15,2013-01-28 23:19:00,
2013-01-28 15:24:00,51.4,36.7,30.11,North,0,3.0,11.0,57,0.00,,,0.00,Wunderground v.1.15,2013-01-28 23:24:00,
2013-01-28 15:34:00,50.8,35.7,30.11,NW,313,4.0,11.0,56,0.00,,,0.00,Wunderground v.1.15,2013-01-28 23:34:00,
2013-01-28 15:44:00,50.5,36.7,30.10,NNW,340,2.0,7.0,59,0.00,,,0.00,Wunderground v.1.15,2013-01-28 23:44:00,
2013-01-28 15:54:00,50.5,36.3,30.10,NW,319,2.0,12.0,58,0.00,,,0.00,Wunderground v.1.15,2013-01-28 23:54:00,
2013-01-28 15:59:00,50.5,37.5,30.11,NW,319,1.0,12.0,61,0.00,,,0.00,Wunderground v.1.15,2013-01-28 23:59:00,
2013-01-28 16:04:00,50.4,37.4,30.11,NW,312,2.0,12.0,61,0.00,,,0.00,Wunderground v.1.15,2013-01-29 00:04:00,
2013-01-28 16:14:00,50.2,37.3,30.11,NNW,330,3.0,12.0,61,0.00,,,0.00,Wunderground v.1.15,2013-01-29 00:14:00,
2013-01-28 16:19:00,50.1,36.7,30.11,NNW,336,2.0,11.0,60,0.00,,,0.00,Wunderground v.1.15,2013-01-29 00:19:00,
2013-01-28 16:29:00,49.6,36.7,30.11,WNW,292,2.0,11.0,61,0.00,,,0.00,Wunderground v.1.15,2013-01-29 00:29:00,
2013-01-28 16:39:00,49.1,37.0,30.11,NNW,342,1.0,11.0,63,0.00,,,0.00,Wunderground v.1.15,2013-01-29 00:39:00,
2013-01-28 16:49:00,48.6,37.7,30.11,NNW,342,1.0,7.0,66,0.00,,,0.00,Wunderground v.1.15,2013-01-29 00:49:00,
2013-01-28 16:54:00,48.5,37.7,30.11,NNW,342,1.0,7.0,66,0.00,,,0.00,Wunderground v.1.15,2013-01-29 00:54:00,
2013-01-28 17:04:00,48.0,37.9,30.11,NNW,342,1.0,7.0,68,0.00,,,0.00,Wunderground v.1.15,2013-01-29 01:04:00,
2013-01-28 17:09:00,47.6,38.3,30.12,NNW,342,0.0,7.0,70,0.00,,,0.00,Wunderground v.1.15,2013-01-29 01:09:00,
2013-01-28 17:19:00,46.8,39.3,30.12,NNW,342,1.0,1.0,75,0.00,,,0.00,Wunderground v.1.15,2013-01-29 01:19:00,
2013-01-28 17:29:00,46.0,39.5,30.13,NNW,342,0.0,5.0,78,0.00,,,0.00,Wunderground v.1.15,2013-01-29 01:29:00,
2013-01-28 17:39:00,45.2,39.7,30.13,NNW,342,0.0,5.0,81,0.00,,,0.00,Wunderground v.1.15,2013-01-29 01:39:00,
2013-01-28 17:44:00,44.9,39.7,30.13,NNW,342,0.0,5.0,82,0.00,,,0.00,Wunderground v.1.15,2013-01-29 01:44:00,
2013-01-28 17:54:00,44.2,39.4,30.13,NNW,342,0.0,5.0,83,0.00,,,0.00,Wunderground v.1.15,2013-01-29 01:54:00,
2013-01-28 17:59:00,43.8,39.3,30.14,NNW,342,0.0,5.0,84,0.00,,,0.00,Wunderground v.1.15,2013-01-29 01:59:00,
2013-01-28 18:04:00,43.5,39.3,30.14,NNW,342,0.0,5.0,85,0.00,,,0.00,Wunderground v.1.15,2013-01-29 02:04:00,
2013-01-28 18:14:00,42.9,39.3,30.15,NNW,342,0.0,5.0,87,0.00,,,0.00,Wunderground v.1.15,2013-01-29 02:14:00,
2013-01-28 18:19:00,42.6,39.0,30.15,NNW,342,0.0,1.0,87,0.00,,,0.00,Wunderground v.1.15,2013-01-29 02:19:00,
2013-01-28 18:29:00,42.3,39.0,30.15,NNW,342,0.0,1.0,88,0.00,,,0.00,Wunderground v.1.15,2013-01-29 02:29:00,
2013-01-28 18:39:00,42.1,39.1,30.15,NNW,342,0.0,1.0,89,0.00,,,0.00,Wunderground v.1.15,2013-01-29 02:39:00,
2013-01-28 18:44:00,41.8,38.8,30.16,NNW,342,0.0,1.0,89,0.00,,,0.00,Wunderground v.1.15,2013-01-29 02:44:00,
2013-01-28 18:54:00,41.6,38.9,30.16,NNW,342,0.0,1.0,90,0.00,,,0.00,Wunderground v.1.15,2013-01-29 02:54:00,
2013-01-28 18:59:00,41.5,38.8,30.17,NNW,342,0.0,1.0,90,0.00,,,0.00,Wunderground v.1.15,2013-01-29 02:59:00,
2013-01-28 19:09:00,41.2,38.8,30.17,NNW,342,0.0,1.0,91,0.00,,,0.00,Wunderground v.1.15,2013-01-29 03:09:00,
2013-01-28 19:19:00,41.1,39.0,30.17,NNW,342,0.0,0.0,92,0.00,,,0.00,Wunderground v.1.15,2013-01-29 03:19:00,
2013-01-28 19:29:00,40.8,38.4,30.17,NNW,342,0.0,0.0,91,0.00,,,0.00,Wunderground v.1.15,2013-01-29 03:29:00,
2013-01-28 19:34:00,40.6,38.5,30.17,NNW,342,0.0,0.0,92,0.00,,,0.00,Wunderground v.1.15,2013-01-29 03:34:00,
2013-01-28 19:44:00,40.5,38.4,30.17,NNW,342,0.0,0.0,92,0.00,,,0.00,Wunderground v.1.15,2013-01-29 03:44:00,
2013-01-28 19:49:00,40.6,38.5,30.17,NNW,342,0.0,0.0,92,0.00,,,0.00,Wunderground v.1.15,2013-01-29 03:49:00,
2013-01-28 19:59:00,40.6,38.7,30.17,NNW,342,0.0,0.0,93,0.00,,,0.00,Wunderground v.1.15,2013-01-29 03:59:00,
2013-01-28 20:04:00,40.5,38.4,30.17,NNW,342,0.0,0.0,92,0.00,,,0.00,Wunderground v.1.15,2013-01-29 04:04:00,
2013-01-28 20:14:00,40.3,38.2,30.17,NNW,342,0.0,2.0,92,0.00,,,0.00,Wunderground v.1.15,2013-01-29 04:14:00,
2013-01-28 20:19:00,40.3,38.4,30.17,NNW,342,0.0,2.0,93,0.00,,,0.00,Wunderground v.1.15,2013-01-29 04:19:00,
2013-01-28 20:29:00,40.2,38.1,30.17,NNW,342,1.0,2.0,92,0.00,,,0.00,Wunderground v.1.15,2013-01-29 04:29:00,
2013-01-28 20:39:00,40.1,38.0,30.17,NNW,342,1.0,1.0,92,0.00,,,0.00,Wunderground v.1.15,2013-01-29 04:39:00,
2013-01-28 20:44:00,40.1,38.2,30.17,NNW,342,1.0,3.0,93,0.00,,,0.00,Wunderground v.1.15,2013-01-29 04:44:00,
2013-01-28 20:54:00,39.9,37.8,30.17,NNW,342,1.0,3.0,92,0.00,,,0.00,Wunderground v.1.15,2013-01-29 04:54:00,
2013-01-28 21:04:00,40.2,38.1,30.17,NNW,342,1.0,3.0,92,0.00,,,0.00,Wunderground v.1.15,2013-01-29 05:04:00,
2013-01-28 21:14:00,41.2,37.9,30.17,NNW,342,2.0,3.0,88,0.00,,,0.00,Wunderground v.1.15,2013-01-29 05:14:00,
2013-01-28 21:19:00,41.5,37.9,30.17,NNW,342,2.0,2.0,87,0.00,,,0.00,Wunderground v.1.15,2013-01-29 05:19:00,
2013-01-28 21:29:00,42.5,37.7,30.17,North,349,3.0,3.0,83,0.00,,,0.00,Wunderground v.1.15,2013-01-29 05:29:00,
2013-01-28 21:34:00,43.3,37.9,30.17,NNW,340,3.0,3.0,81,0.00,,,0.00,Wunderground v.1.15,2013-01-29 05:34:00,
2013-01-28 21:39:00,43.8,38.0,30.17,NNW,339,3.0,5.0,80,0.00,,,0.00,Wunderground v.1.15,2013-01-29 05:39:00,
2013-01-28 21:44:00,44.1,38.0,30.17,NW,319,3.0,7.0,79,0.00,,,0.00,Wunderground v.1.15,2013-01-29 05:44:00,
2013-01-28 21:49:00,43.9,37.8,30.17,NNE,13,3.0,3.0,79,0.00,,,0.00,Wunderground v.1.15,2013-01-29 05:49:00,
2013-01-28 21:59:00,44.1,38.0,30.16,NNW,335,3.0,3.0,79,0.00,,,0.00,Wunderground v.1.15,2013-01-29 05:59:00,
2013-01-28 22:04:00,43.9,37.5,30.16,NNW,340,3.0,7.0,78,0.00,,,0.00,Wunderground v.1.15,2013-01-29 06:04:00,
2013-01-28 22:14:00,43.8,37.7,30.16,NNW,335,2.0,7.0,79,0.00,,,0.00,Wunderground v.1.15,2013-01-29 06:14:00,
2013-01-28 22:24:00,43.3,37.2,30.16,NNW,340,2.0,7.0,79,0.00,,,0.00,Wunderground v.1.15,2013-01-29 06:24:00,
2013-01-28 22:29:00,43.5,37.1,30.16,North,350,3.0,7.0,78,0.00,,,0.00,Wunderground v.1.15,2013-01-29 06:29:00,
2013-01-28 22:39:00,43.8,37.4,30.16,NNW,336,4.0,7.0,78,0.00,,,0.00,Wunderground v.1.15,2013-01-29 06:39:00,
2013-01-28 22:44:00,43.9,37.2,30.16,NNW,339,4.0,12.0,77,0.00,,,0.00,Wunderground v.1.15,2013-01-29 06:44:00,
2013-01-28 22:54:00,43.9,37.2,30.16,NW,326,3.0,12.0,77,0.00,,,0.00,Wunderground v.1.15,2013-01-29 06:54:00,
2013-01-28 23:04:00,43.5,37.1,30.16,NW,304,2.0,12.0,78,0.00,,,0.00,Wunderground v.1.15,2013-01-29 07:04:00,
2013-01-28 23:09:00,43.3,36.9,30.16,North,349,3.0,12.0,78,0.00,,,0.00,Wunderground v.1.15,2013-01-29 07:09:00,
2013-01-28 23:19:00,44.1,37.0,30.16,WNW,302,4.0,4.0,76,0.00,,,0.00,Wunderground v.1.15,2013-01-29 07:19:00,
2013-01-28 23:24:00,44.1,37.3,30.15,North,0,5.0,5.0,77,0.00,,,0.00,Wunderground v.1.15,2013-01-29 07:24:00,
2013-01-28 23:34:00,44.1,37.0,30.15,North,1,5.0,11.0,76,0.00,,,0.00,Wunderground v.1.15,2013-01-29 07:34:00,
2013-01-28 23:39:00,44.1,37.0,30.16,NNW,346,4.0,11.0,76,0.00,,,0.00,Wunderground v.1.15,2013-01-29 07:39:00,
2013-01-28 23:49:00,43.9,37.2,30.16,NW,306,4.0,4.0,77,0.00,,,0.00,Wunderground v.1.15,2013-01-29 07:49:00,
2013-01-28 23:59:00,43.9,37.2,30.15,NW,308,5.0,11.0,77,0.00,,,0.00,Wunderground v.1.15,2013-01-29 07:59:00,